Wetterdaten: Dienstag, 08.12.2015
Datum Zeit Temp. A. Mod.Schuppen Feuchte A. Luftdruck Regen Wind Richtung Richtung Sonnenschein Helligkeit Solar
08.12.2015 00:00 10,8 C 9,1 C 78 % 1029,1 hPa 0,0 l/m 14,1 km/h (3 Bft) S-SO22.5 160 0 min 0 lux 0 W/m
08.12.2015 00:05 10,8 C 9,0 C 78 % 1029,1 hPa 0,0 l/m 14,1 km/h (3 Bft) S-SO22.5 160 0 min 0 lux 0 W/m
08.12.2015 00:10 10,8 C 9,0 C 78 % 1029,1 hPa 0,0 l/m 14,1 km/h (3 Bft) S-SO22.5 160 0 min 0 lux 0 W/m
08.12.2015 00:15 10,8 C 9,0 C 78 % 1029,1 hPa 0,0 l/m 14,1 km/h (3 Bft) S-SO22.5 160 0 min 0 lux 0 W/m
08.12.2015 00:20 10,8 C 9,0 C 78 % 1029,1 hPa 0,0 l/m 14,1 km/h (3 Bft) S-SO22.5 160 0 min 0 lux 0 W/m
08.12.2015 00:25 10,8 C 9,0 C 78 % 1029,1 hPa 0,0 l/m 14,1 km/h (3 Bft) S-SO22.5 160 0 min 0 lux 0 W/m
08.12.2015 00:30 10,8 C 9,1 C 78 % 1029,1 hPa 0,0 l/m 14,1 km/h (3 Bft) S-SO22.5 160 0 min 0 lux 0 W/m
08.12.2015 00:35 10,8 C 9,1 C 78 % 1029,1 hPa 0,0 l/m 14,1 km/h (3 Bft) S-SO22.5 160 0 min 0 lux 0 W/m
08.12.2015 00:40 10,8 C 9,2 C 78 % 1029,1 hPa 0,0 l/m 14,1 km/h (3 Bft) S-SO22.5 160 0 min 0 lux 0 W/m
08.12.2015 00:45 10,8 C 9,3 C 78 % 1029,1 hPa 0,0 l/m 14,1 km/h (3 Bft) S-SO22.5 160 0 min 0 lux 0 W/m
08.12.2015 00:50 10,8 C 9,2 C 78 % 1029,1 hPa 0,0 l/m 14,1 km/h (3 Bft) S-SO22.5 160 0 min 0 lux 0 W/m
08.12.2015 00:55 10,8 C 9,1 C 78 % 1029,1 hPa 0,0 l/m 14,1 km/h (3 Bft) S-SO22.5 160 0 min 0 lux 0 W/m
08.12.2015 01:00 10,8 C 9,0 C 78 % 1029,1 hPa 0,0 l/m 14,1 km/h (3 Bft) S-SO22.5 160 0 min 0 lux 0 W/m
08.12.2015 01:05 10,8 C 9,0 C 78 % 1029,1 hPa 0,0 l/m 14,1 km/h (3 Bft) S-SO22.5 160 0 min 0 lux 0 W/m
08.12.2015 01:10 10,8 C 9,0 C 78 % 1029,1 hPa 0,0 l/m 14,1 km/h (3 Bft) S-SO22.5 160 0 min 0 lux 0 W/m
08.12.2015 01:15 10,8 C 8,9 C 78 % 1029,1 hPa 0,0 l/m 14,1 km/h (3 Bft) S-SO22.5 160 0 min 0 lux 0 W/m
08.12.2015 01:20 10,8 C 8,9 C 78 % 1029,1 hPa 0,0 l/m 11,6 km/h (2 Bft) S-SO22.5 160 0 min 0 lux 0 W/m
08.12.2015 01:25 10,8 C 8,9 C 78 % 1029,1 hPa 0,0 l/m 11,6 km/h (2 Bft) S-SO22.5 160 0 min 0 lux 0 W/m
08.12.2015 01:30 10,9 C 9,1 C 78 % 1029,1 hPa 0,0 l/m 11,6 km/h (2 Bft) S-SO22.5 160 0 min 0 lux 0 W/m
08.12.2015 01:35 10,9 C 9,2 C 77 % 1029,1 hPa 0,0 l/m 11,6 km/h (2 Bft) S-SO22.5 160 0 min 0 lux 0 W/m
08.12.2015 01:40 11,0 C 9,5 C 77 % 1029,1 hPa 0,0 l/m 11,6 km/h (2 Bft) S-SO22.5 160 0 min 0 lux 0 W/m
08.12.2015 01:45 11,0 C 9,5 C 77 % 1029,1 hPa 0,0 l/m 11,6 km/h (2 Bft) S-SO22.5 160 0 min 0 lux 0 W/m
08.12.2015 01:50 11,0 C 9,2 C 77 % 1029,1 hPa 0,0 l/m 11,6 km/h (2 Bft) S-SO22.5 160 0 min 0 lux 0 W/m
08.12.2015 01:55 10,9 C 9,0 C 76 % 1029,1 hPa 0,0 l/m 11,6 km/h (2 Bft) S-SO22.5 160 0 min 0 lux 0 W/m
08.12.2015 02:00 10,9 C 8,9 C 76 % 1029,1 hPa 0,0 l/m 11,6 km/h (2 Bft) S-SO22.5 160 0 min 0 lux 0 W/m
08.12.2015 02:05 10,8 C 8,9 C 76 % 1029,1 hPa 0,0 l/m 11,6 km/h (2 Bft) S-SO22.5 160 0 min 0 lux 0 W/m
08.12.2015 02:10 10,8 C 8,7 C 76 % 1029,1 hPa 0,0 l/m 11,6 km/h (2 Bft) S-SO22.5 160 0 min 0 lux 0 W/m
08.12.2015 02:15 10,8 C 8,7 C 76 % 1029,1 hPa 0,0 l/m 11,6 km/h (2 Bft) S-SO22.5 160 0 min 0 lux 0 W/m
08.12.2015 02:20 10,8 C 8,6 C 76 % 1029,1 hPa 0,0 l/m 11,6 km/h (2 Bft) S-SO22.5 160 0 min 0 lux 0 W/m
08.12.2015 02:25 10,8 C 8,4 C 76 % 1029,1 hPa 0,0 l/m 11,6 km/h (2 Bft) S-SO22.5 160 0 min 0 lux 0 W/m
08.12.2015 02:30 10,7 C 8,2 C 76 % 1029,1 hPa 0,0 l/m 11,6 km/h (2 Bft) S-SO22.5 160 0 min 0 lux 0 W/m
08.12.2015 02:35 10,6 C 8,1 C 76 % 1029,1 hPa 0,0 l/m 11,6 km/h (2 Bft) S-SO22.5 160 0 min 0 lux 0 W/m
08.12.2015 02:40 10,5 C 7,8 C 77 % 1029,1 hPa 0,0 l/m 11,6 km/h (2 Bft) S-SO22.5 160 0 min 0 lux 0 W/m
08.12.2015 02:45 10,4 C 7,6 C 77 % 1029,1 hPa 0,0 l/m 11,6 km/h (2 Bft) S-SO22.5 160 0 min 0 lux 0 W/m
08.12.2015 02:49 10,4 C 7,5 C 77 % 1029,1 hPa 0,0 l/m 11,6 km/h (2 Bft) S-SO22.5 160 0 min 0 lux 0 W/m
08.12.2015 02:55 10,4 C 7,5 C 77 % 1029,1 hPa 0,0 l/m 11,6 km/h (2 Bft) S-SO22.5 160 0 min 0 lux 0 W/m
08.12.2015 03:00 10,4 C 7,4 C 77 % 1029,1 hPa 0,0 l/m 11,6 km/h (2 Bft) S-SO22.5 160 0 min 0 lux 0 W/m
08.12.2015 03:05 10,2 C 7,3 C 77 % 1029,1 hPa 0,0 l/m 11,6 km/h (2 Bft) S-SO22.5 160 0 min 0 lux 0 W/m
08.12.2015 03:10 10,2 C 7,3 C 77 % 1029,1 hPa 0,0 l/m 11,6 km/h (2 Bft) S-SO22.5 160 0 min 0 lux 0 W/m
08.12.2015 03:15 10,2 C 7,3 C 77 % 1029,1 hPa 0,0 l/m 11,6 km/h (2 Bft) S-SO22.5 160 0 min 0 lux 0 W/m
08.12.2015 03:20 10,2 C 7,3 C 77 % 1029,1 hPa 0,0 l/m 11,6 km/h (2 Bft) S-SO22.5 160 0 min 0 lux 0 W/m
08.12.2015 03:25 10,1 C 7,4 C 77 % 1029,1 hPa 0,0 l/m 11,6 km/h (2 Bft) S-SO22.5 160 0 min 0 lux 0 W/m
08.12.2015 03:30 10,1 C 7,3 C 77 % 1029,1 hPa 0,0 l/m 11,6 km/h (2 Bft) S-SO22.5 160 0 min 0 lux 0 W/m
08.12.2015 03:35 10,1 C 7,3 C 77 % 1029,1 hPa 0,0 l/m 11,6 km/h (2 Bft) S-SO22.5 160 0 min 0 lux 0 W/m
08.12.2015 03:40 10,1 C 7,2 C 77 % 1028,1 hPa 0,0 l/m 11,6 km/h (2 Bft) S-SO22.5 160 0 min 0 lux 0 W/m
08.12.2015 03:45 10,0 C 7,3 C 77 % 1028,1 hPa 0,0 l/m 11,6 km/h (2 Bft) S-SO22.5 160 0 min 0 lux 0 W/m
08.12.2015 03:50 10,0 C 7,2 C 77 % 1028,1 hPa 0,0 l/m 11,6 km/h (2 Bft) S-SO22.5 160 0 min 0 lux 0 W/m
08.12.2015 03:55 10,0 C 7,2 C 77 % 1029,1 hPa 0,0 l/m 11,6 km/h (2 Bft) S-SO22.5 160 0 min 0 lux 0 W/m
08.12.2015 04:00 10,0 C 7,0 C 77 % 1029,1 hPa 0,0 l/m 11,6 km/h (2 Bft) S-SO22.5 160 0 min 0 lux 0 W/m
08.12.2015 04:05 10,0 C 7,0 C 77 % 1028,1 hPa 0,0 l/m 11,6 km/h (2 Bft) S-SO22.5 160 0 min 0 lux 0 W/m
08.12.2015 04:10 10,0 C 6,9 C 77 % 1028,1 hPa 0,0 l/m 11,6 km/h (2 Bft) S-SO22.5 160 0 min 0 lux 0 W/m
08.12.2015 04:15 10,0 C 6,9 C 77 % 1029,1 hPa 0,0 l/m 11,6 km/h (2 Bft) S-SO22.5 160 0 min 0 lux 0 W/m
08.12.2015 04:20 9,9 C 6,9 C 77 % 1029,1 hPa 0,0 l/m 11,6 km/h (2 Bft) S-SO22.5 160 0 min 0 lux 0 W/m
08.12.2015 04:25 9,9 C 6,9 C 77 % 1029,1 hPa 0,0 l/m 11,6 km/h (2 Bft) S-SO22.5 160 0 min 0 lux 0 W/m
08.12.2015 04:30 9,9 C 7,1 C 78 % 1028,1 hPa 0,0 l/m 11,6 km/h (2 Bft) S-SO22.5 160 0 min 0 lux 0 W/m
08.12.2015 04:35 9,9 C 7,4 C 78 % 1028,1 hPa 0,0 l/m 11,6 km/h (2 Bft) S-SO22.5 160 0 min 0 lux 0 W/m
08.12.2015 04:40 10,0 C 7,5 C 77 % 1028,1 hPa 0,0 l/m 11,6 km/h (2 Bft) S-SO22.5 160 0 min 0 lux 0 W/m
08.12.2015 04:45 10,0 C 7,5 C 77 % 1028,1 hPa 0,0 l/m 11,6 km/h (2 Bft) S-SO22.5 160 0 min 0 lux 0 W/m
08.12.2015 04:50 10,0 C 7,3 C 77 % 1028,1 hPa 0,0 l/m 11,6 km/h (2 Bft) S-SO22.5 160 0 min 0 lux 0 W/m
08.12.2015 04:55 10,0 C 7,1 C 77 % 1028,1 hPa 0,0 l/m 11,6 km/h (2 Bft) S-SO22.5 160 0 min 0 lux 0 W/m
08.12.2015 05:00 9,9 C 7,0 C 77 % 1028,1 hPa 0,0 l/m 11,6 km/h (2 Bft) S-SO22.5 160 0 min 0 lux 0 W/m
08.12.2015 05:05 9,9 C 6,9 C 77 % 1028,1 hPa 0,0 l/m 11,6 km/h (2 Bft) S-SO22.5 160 0 min 0 lux 0 W/m
08.12.2015 05:10 9,9 C 6,8 C 77 % 1028,1 hPa 0,0 l/m 11,6 km/h (2 Bft) S-SO22.5 160 0 min 0 lux 0 W/m
08.12.2015 05:15 9,8 C 6,6 C 77 % 1028,1 hPa 0,0 l/m 11,8 km/h (2 Bft) S-SO22.5 155 0 min 0 lux 0 W/m
08.12.2015 05:20 9,8 C 6,5 C 77 % 1028,1 hPa 0,0 l/m 11,8 km/h (2 Bft) S-SO22.5 155 0 min 0 lux 0 W/m
08.12.2015 05:25 9,7 C 6,5 C 78 % 1028,1 hPa 0,0 l/m 11,8 km/h (2 Bft) S-SO22.5 155 0 min 0 lux 0 W/m
08.12.2015 05:30 9,7 C 6,5 C 78 % 1028,1 hPa 0,0 l/m 11,8 km/h (2 Bft) S-SO22.5 155 0 min 0 lux 0 W/m
08.12.2015 05:35 9,7 C 6,5 C 78 % 1028,1 hPa 0,0 l/m 11,8 km/h (2 Bft) S-SO22.5 155 0 min 0 lux 0 W/m
08.12.2015 05:40 9,6 C 6,3 C 78 % 1028,1 hPa 0,0 l/m 11,8 km/h (2 Bft) S-SO22.5 155 0 min 0 lux 0 W/m
08.12.2015 05:44 9,6 C 6,2 C 78 % 1028,1 hPa 0,0 l/m 11,8 km/h (2 Bft) S-SO22.5 155 0 min 0 lux 0 W/m
08.12.2015 05:50 9,6 C 6,2 C 78 % 1028,1 hPa 0,0 l/m 11,8 km/h (2 Bft) S-SO22.5 155 0 min 0 lux 0 W/m
08.12.2015 05:55 9,6 C 6,1 C 78 % 1028,1 hPa 0,0 l/m 11,8 km/h (2 Bft) S-SO22.5 155 0 min 0 lux 0 W/m
08.12.2015 06:00 9,4 C 6,0 C 78 % 1028,1 hPa 0,0 l/m 11,8 km/h (2 Bft) S-SO22.5 155 0 min 0 lux 0 W/m
08.12.2015 06:05 9,3 C 6,2 C 79 % 1028,1 hPa 0,0 l/m 11,8 km/h (2 Bft) S-SO22.5 155 0 min 0 lux 0 W/m
08.12.2015 06:10 9,2 C 6,2 C 79 % 1028,1 hPa 0,0 l/m 11,8 km/h (2 Bft) S-SO22.5 155 0 min 0 lux 0 W/m
08.12.2015 06:15 9,2 C 6,1 C 79 % 1028,1 hPa 0,0 l/m 11,8 km/h (2 Bft) S-SO22.5 155 0 min 0 lux 0 W/m
08.12.2015 06:20 9,2 C 6,1 C 79 % 1028,1 hPa 0,0 l/m 11,8 km/h (2 Bft) S-SO22.5 155 0 min 0 lux 0 W/m
08.12.2015 06:25 9,2 C 6,2 C 79 % 1028,1 hPa 0,0 l/m 11,8 km/h (2 Bft) S-SO22.5 155 0 min 0 lux 0 W/m
08.12.2015 06:30 9,2 C 6,3 C 79 % 1028,1 hPa 0,0 l/m 11,8 km/h (2 Bft) S-SO22.5 155 0 min 0 lux 0 W/m
08.12.2015 06:35 9,2 C 6,4 C 79 % 1028,1 hPa 0,0 l/m 11,8 km/h (2 Bft) S-SO22.5 155 0 min 0 lux 0 W/m
08.12.2015 06:40 9,2 C 6,3 C 79 % 1028,1 hPa 0,0 l/m 11,8 km/h (2 Bft) S-SO22.5 155 0 min 0 lux 0 W/m
08.12.2015 06:44 9,2 C 6,3 C 79 % 1028,1 hPa 0,0 l/m 11,8 km/h (2 Bft) S-SO22.5 155 0 min 0 lux 0 W/m
08.12.2015 06:50 9,2 C 6,2 C 79 % 1028,1 hPa 0,0 l/m 11,8 km/h (2 Bft) S-SO22.5 155 0 min 0 lux 0 W/m
08.12.2015 06:55 9,2 C 6,1 C 79 % 1028,1 hPa 0,0 l/m 11,8 km/h (2 Bft) S-SO22.5 155 0 min 0 lux 0 W/m
08.12.2015 07:00 9,1 C 6,1 C 79 % 1028,1 hPa 0,0 l/m 11,8 km/h (2 Bft) S-SO22.5 155 0 min 0 lux 0 W/m
08.12.2015 07:05 9,1 C 6,1 C 79 % 1028,1 hPa 0,0 l/m 11,8 km/h (2 Bft) S-SO22.5 155 0 min 0 lux 0 W/m
08.12.2015 07:09 9,2 C 6,2 C 79 % 1028,1 hPa 0,0 l/m 11,8 km/h (2 Bft) S-SO22.5 155 0 min 0 lux 0 W/m
08.12.2015 07:15 9,1 C 6,1 C 79 % 1028,1 hPa 0,0 l/m 11,8 km/h (2 Bft) S-SO22.5 155 0 min 0 lux 0 W/m
08.12.2015 07:20 9,1 C 6,0 C 79 % 1028,1 hPa 0,0 l/m 11,8 km/h (2 Bft) S-SO22.5 155 0 min 0 lux 0 W/m
08.12.2015 07:25 9,0 C 5,9 C 79 % 1028,1 hPa 0,0 l/m 11,8 km/h (2 Bft) S-SO22.5 155 0 min 0 lux 0 W/m
08.12.2015 07:30 8,9 C 5,8 C 79 % 1028,1 hPa 0,0 l/m 11,8 km/h (2 Bft) S-SO22.5 155 0 min 0 lux 0 W/m
08.12.2015 07:35 8,8 C 5,7 C 80 % 1028,1 hPa 0,0 l/m 11,8 km/h (2 Bft) S-SO22.5 155 0 min 0 lux 0 W/m
08.12.2015 07:40 8,8 C 5,7 C 80 % 1028,1 hPa 0,0 l/m 11,8 km/h (2 Bft) S-SO22.5 155 0 min 0 lux 0 W/m
08.12.2015 07:45 8,9 C 5,8 C 80 % 1028,1 hPa 0,0 l/m 15,6 km/h (3 Bft) S-SO22.5 150 0 min 0 lux 0 W/m
08.12.2015 07:50 9,1 C 6,0 C 79 % 1028,1 hPa 0,0 l/m 15,6 km/h (3 Bft) S-SO22.5 150 0 min 0 lux 0 W/m
08.12.2015 07:55 9,1 C 6,0 C 79 % 1028,1 hPa 0,0 l/m 15,6 km/h (3 Bft) S-SO22.5 150 0 min 33 lux 0 W/m
08.12.2015 08:00 9,1 C 6,2 C 79 % 1028,1 hPa 0,0 l/m 15,6 km/h (3 Bft) S-SO22.5 150 0 min 48 lux 0 W/m
08.12.2015 08:05 9,1 C 6,2 C 79 % 1028,1 hPa 0,0 l/m 15,6 km/h (3 Bft) S-SO22.5 150 0 min 100 lux 0 W/m
08.12.2015 08:10 9,1 C 6,1 C 79 % 1028,1 hPa 0,0 l/m 15,6 km/h (3 Bft) S-SO22.5 150 0 min 100 lux 0 W/m
08.12.2015 08:15 9,2 C 6,1 C 79 % 1028,1 hPa 0,0 l/m 15,6 km/h (3 Bft) S-SO22.5 150 0 min 325 lux 0 W/m
08.12.2015 08:20 9,2 C 6,1 C 79 % 1028,1 hPa 0,0 l/m 15,6 km/h (3 Bft) S-SO22.5 150 0 min 510 lux 0 W/m
08.12.2015 08:25 9,2 C 6,1 C 79 % 1028,1 hPa 0,0 l/m 15,6 km/h (3 Bft) S-SO22.5 150 0 min 754 lux 0 W/m
08.12.2015 08:30 9,2 C 6,2 C 79 % 1028,1 hPa 0,0 l/m 15,6 km/h (3 Bft) S-SO22.5 150 0 min 1,05 klux 0 W/m
08.12.2015 08:35 9,3 C 6,4 C 79 % 1028,1 hPa 0,0 l/m 15,6 km/h (3 Bft) S-SO22.5 150 0 min 1,22 klux 8 W/m
08.12.2015 08:40 9,4 C 6,3 C 78 % 1028,1 hPa 0,0 l/m 15,6 km/h (3 Bft) S-SO22.5 150 5 min 1,58 klux 11 W/m
08.12.2015 08:45 9,4 C 6,4 C 78 % 1028,1 hPa 0,0 l/m 15,6 km/h (3 Bft) S-SO22.5 150 0 min 1,96 klux 13 W/m
08.12.2015 08:50 9,4 C 6,6 C 79 % 1028,1 hPa 0,0 l/m 15,6 km/h (3 Bft) S-SO22.5 150 5 min 3,98 klux 27 W/m
08.12.2015 08:55 9,5 C 6,7 C 78 % 1028,1 hPa 0,0 l/m 15,6 km/h (3 Bft) S-SO22.5 150 5 min 6,76 klux 46 W/m
08.12.2015 09:00 9,6 C 7,2 C 78 % 1028,1 hPa 0,0 l/m 15,6 km/h (3 Bft) S-SO22.5 150 5 min 7,59 klux 52 W/m
08.12.2015 09:05 9,6 C 7,8 C 78 % 1028,1 hPa 0,0 l/m 15,6 km/h (3 Bft) S-SO22.5 150 5 min 7,59 klux 52 W/m
08.12.2015 09:10 9,7 C 8,2 C 77 % 1028,1 hPa 0,0 l/m 15,6 km/h (3 Bft) S-SO22.5 150 5 min 10,8 klux 74 W/m
08.12.2015 09:15 9,6 C 8,5 C 77 % 1028,1 hPa 0,0 l/m 15,6 km/h (3 Bft) S-SO22.5 150 5 min 12,1 klux 83 W/m
08.12.2015 09:20 9,6 C 8,8 C 77 % 1028,1 hPa 0,0 l/m 15,6 km/h (3 Bft) S-SO22.5 150 5 min 13,6 klux 93 W/m
08.12.2015 09:25 9,8 C 9,1 C 77 % 1028,1 hPa 0,0 l/m 15,6 km/h (3 Bft) S-SO22.5 150 5 min 15,0 klux 103 W/m
08.12.2015 09:30 9,8 C 9,4 C 77 % 1028,1 hPa 0,0 l/m 15,6 km/h (3 Bft) S-SO22.5 150 5 min 16,4 klux 112 W/m
08.12.2015 09:35 9,9 C 9,8 C 77 % 1028,1 hPa 0,0 l/m 15,6 km/h (3 Bft) S-SO22.5 150 5 min 17,5 klux 120 W/m
08.12.2015 09:40 9,9 C 10,9 C 77 % 1028,1 hPa 0,0 l/m 15,6 km/h (3 Bft) S-SO22.5 150 5 min 18,7 klux 128 W/m
08.12.2015 09:45 10,0 C 11,5 C 77 % 1028,1 hPa 0,0 l/m 15,6 km/h (3 Bft) S-SO22.5 150 5 min 19,3 klux 132 W/m
08.12.2015 09:50 10,0 C 12,3 C 77 % 1028,1 hPa 0,0 l/m 15,6 km/h (3 Bft) S-SO22.5 150 5 min 20,6 klux 141 W/m
08.12.2015 09:55 10,2 C 13,1 C 76 % 1028,1 hPa 0,0 l/m 15,6 km/h (3 Bft) S-SO22.5 150 5 min 21,1 klux 144 W/m
08.12.2015 10:00 10,3 C 13,7 C 76 % 1028,1 hPa 0,0 l/m 15,6 km/h (3 Bft) S-SO22.5 150 5 min 23,0 klux 157 W/m
08.12.2015 10:05 10,4 C 14,0 C 76 % 1028,1 hPa 0,0 l/m 20,0 km/h (4 Bft) S-SO45 160 5 min 23,6 klux 161 W/m
08.12.2015 10:10 10,4 C 14,5 C 75 % 1028,1 hPa 0,0 l/m 20,0 km/h (4 Bft) S-SO45 160 5 min 24,8 klux 170 W/m
08.12.2015 10:15 10,6 C 14,9 C 75 % 1028,1 hPa 0,0 l/m 20,0 km/h (4 Bft) S-SO45 160 5 min 25,6 klux 175 W/m
08.12.2015 10:20 10,7 C 15,5 C 75 % 1028,1 hPa 0,0 l/m 20,0 km/h (4 Bft) S-SO45 160 5 min 26,6 klux 182 W/m
08.12.2015 10:25 11,0 C 15,8 C 74 % 1028,1 hPa 0,0 l/m 20,0 km/h (4 Bft) S-SO45 160 5 min 27,5 klux 188 W/m
08.12.2015 10:30 11,2 C 16,4 C 73 % 1028,1 hPa 0,0 l/m 20,0 km/h (4 Bft) S-SO45 160 5 min 27,8 klux 190 W/m
08.12.2015 10:35 11,4 C 16,6 C 73 % 1028,0 hPa 0,0 l/m 20,0 km/h (4 Bft) S-SO45 160 5 min 29,3 klux 200 W/m
08.12.2015 10:40 11,5 C 16,9 C 73 % 1028,0 hPa 0,0 l/m 22,2 km/h (4 Bft) S-SO22.5 155 5 min 29,8 klux 204 W/m
08.12.2015 10:45 11,6 C 17,3 C 72 % 1028,0 hPa 0,0 l/m 22,2 km/h (4 Bft) S-SO22.5 155 5 min 30,5 klux 209 W/m
08.12.2015 10:50 11,7 C 17,6 C 72 % 1028,0 hPa 0,0 l/m 22,2 km/h (4 Bft) S-SO22.5 155 5 min 30,5 klux 209 W/m
08.12.2015 10:54 11,7 C 17,7 C 71 % 1028,0 hPa 0,0 l/m 23,8 km/h (4 Bft) S-SO45 155 4 min 31,5 klux 215 W/m
08.12.2015 11:00 11,8 C 18,0 C 71 % 1028,0 hPa 0,0 l/m 26,8 km/h (4 Bft) S-SO45 160 6 min 32,0 klux 219 W/m
08.12.2015 11:05 11,9 C 18,3 C 71 % 1028,0 hPa 0,0 l/m 25,6 km/h (4 Bft) S-SO22.5 155 5 min 32,4 klux 222 W/m
08.12.2015 11:10 11,9 C 18,3 C 71 % 1028,0 hPa 0,0 l/m 25,6 km/h (4 Bft) S-SO22.5 155 5 min 33,5 klux 229 W/m
08.12.2015 11:15 12,0 C 18,8 C 71 % 1028,0 hPa 0,0 l/m 23,8 km/h (4 Bft) S-SO45 160 5 min 33,8 klux 231 W/m
08.12.2015 11:19 12,1 C 19,1 C 70 % 1028,0 hPa 0,0 l/m 25,0 km/h (4 Bft) S45 170 4 min 34,3 klux 235 W/m
08.12.2015 11:25 12,1 C 19,3 C 70 % 1028,0 hPa 0,0 l/m 22,0 km/h (4 Bft) S-SO22.5 165 6 min 34,7 klux 237 W/m
08.12.2015 11:30 12,2 C 19,5 C 70 % 1028,0 hPa 0,0 l/m 22,0 km/h (4 Bft) S-SO22.5 165 5 min 35,4 klux 242 W/m
08.12.2015 11:35 12,3 C 19,5 C 70 % 1028,0 hPa 0,0 l/m 23,0 km/h (4 Bft) S-SO22.5 165 5 min 35,7 klux 244 W/m
08.12.2015 11:40 12,3 C 20,3 C 70 % 1027,0 hPa 0,0 l/m 23,0 km/h (4 Bft) S-SO22.5 165 5 min 35,9 klux 246 W/m
08.12.2015 11:45 12,6 C 20,7 C 70 % 1027,0 hPa 0,0 l/m 22,5 km/h (4 Bft) S22.5 170 5 min 36,4 klux 249 W/m
08.12.2015 11:50 12,7 C 21,4 C 69 % 1027,0 hPa 0,0 l/m 22,5 km/h (4 Bft) S22.5 170 5 min 36,7 klux 251 W/m
08.12.2015 11:55 12,7 C 21,4 C 69 % 1027,0 hPa 0,0 l/m 22,5 km/h (4 Bft) S22.5 170 5 min 37,0 klux 253 W/m
08.12.2015 12:00 12,7 C 21,5 C 69 % 1027,0 hPa 0,0 l/m 22,1 km/h (4 Bft) S-SO45 160 5 min 37,3 klux 255 W/m
08.12.2015 12:05 12,7 C 21,7 C 69 % 1027,0 hPa 0,0 l/m 22,1 km/h (4 Bft) S-SO45 160 5 min 37,4 klux 256 W/m
08.12.2015 12:10 13,0 C 22,0 C 68 % 1027,0 hPa 0,0 l/m 18,6 km/h (3 Bft) S45 170 5 min 37,5 klux 257 W/m
08.12.2015 12:15 13,0 C 22,0 C 68 % 1027,0 hPa 0,0 l/m 18,6 km/h (3 Bft) S45 170 5 min 37,6 klux 257 W/m
08.12.2015 12:20 13,0 C 22,0 C 68 % 1027,0 hPa 0,0 l/m 18,6 km/h (3 Bft) S45 170 5 min 37,5 klux 257 W/m
08.12.2015 12:25 13,0 C 22,0 C 68 % 1027,0 hPa 0,0 l/m 18,6 km/h (3 Bft) S45 170 5 min 37,2 klux 254 W/m
08.12.2015 12:30 13,0 C 22,1 C 68 % 1027,0 hPa 0,0 l/m 18,6 km/h (3 Bft) S45 170 5 min 37,7 klux 258 W/m
08.12.2015 12:35 13,2 C 22,3 C 68 % 1027,0 hPa 0,0 l/m 18,6 km/h (3 Bft) S45 170 5 min 37,7 klux 258 W/m
08.12.2015 12:40 13,2 C 22,8 C 68 % 1027,0 hPa 0,0 l/m 18,8 km/h (3 Bft) S-SO22.5 160 5 min 35,9 klux 246 W/m
08.12.2015 12:44 13,2 C 23,0 C 68 % 1027,0 hPa 0,0 l/m 16,9 km/h (3 Bft) S-SO22.5 165 4 min 37,2 klux 254 W/m
08.12.2015 12:50 13,3 C 23,1 C 67 % 1027,0 hPa 0,0 l/m 17,4 km/h (3 Bft) S45 175 6 min 36,2 klux 248 W/m
08.12.2015 12:55 13,3 C 23,0 C 67 % 1027,0 hPa 0,0 l/m 17,4 km/h (3 Bft) S45 175 5 min 35,1 klux 240 W/m
08.12.2015 13:00 13,4 C 23,2 C 68 % 1027,0 hPa 0,0 l/m 17,4 km/h (3 Bft) S45 175 5 min 36,5 klux 250 W/m
08.12.2015 13:05 13,4 C 22,9 C 67 % 1027,0 hPa 0,0 l/m 17,4 km/h (3 Bft) S45 175 5 min 36,2 klux 248 W/m
08.12.2015 13:10 13,4 C 22,9 C 67 % 1027,0 hPa 0,0 l/m 17,4 km/h (3 Bft) S45 175 5 min 35,8 klux 245 W/m
08.12.2015 13:15 13,6 C 23,1 C 68 % 1027,0 hPa 0,0 l/m 19,8 km/h (3 Bft) S45 180 5 min 35,4 klux 242 W/m
08.12.2015 13:20 13,6 C 23,3 C 68 % 1027,0 hPa 0,0 l/m 19,8 km/h (3 Bft) S45 180 5 min 35,0 klux 239 W/m
08.12.2015 13:25 13,9 C 23,4 C 67 % 1027,0 hPa 0,0 l/m 16,1 km/h (3 Bft) S22.5 175 5 min 34,7 klux 237 W/m
08.12.2015 13:30 13,9 C 23,0 C 67 % 1026,0 hPa 0,0 l/m 21,2 km/h (4 Bft) S22.5 170 5 min 33,9 klux 232 W/m
08.12.2015 13:35 14,0 C 22,2 C 66 % 1026,0 hPa 0,0 l/m 21,2 km/h (4 Bft) S22.5 170 5 min 33,8 klux 231 W/m
08.12.2015 13:40 14,0 C 22,2 C 66 % 1026,0 hPa 0,0 l/m 18,8 km/h (3 Bft) S-SO22.5 165 5 min 33,2 klux 227 W/m
08.12.2015 13:45 14,0 C 21,9 C 66 % 1026,0 hPa 0,0 l/m 22,5 km/h (4 Bft) S-SO22.5 165 5 min 32,8 klux 224 W/m
08.12.2015 13:50 14,0 C 21,7 C 66 % 1026,0 hPa 0,0 l/m 23,0 km/h (4 Bft) S22.5 170 5 min 32,4 klux 222 W/m
08.12.2015 13:55 14,0 C 21,5 C 66 % 1026,0 hPa 0,0 l/m 26,5 km/h (4 Bft) S45 170 5 min 32,1 klux 220 W/m
08.12.2015 14:00 14,0 C 21,3 C 66 % 1026,0 hPa 0,0 l/m 21,3 km/h (4 Bft) S-SO22.5 165 5 min 31,7 klux 217 W/m
08.12.2015 14:04 14,0 C 21,1 C 66 % 1026,0 hPa 0,0 l/m 21,9 km/h (4 Bft) S-SO22.5 165 4 min 31,7 klux 217 W/m
08.12.2015 14:10 14,0 C 20,4 C 66 % 1026,0 hPa 0,0 l/m 21,3 km/h (4 Bft) S-SO45 160 6 min 29,3 klux 200 W/m
08.12.2015 14:15 14,0 C 20,4 C 66 % 1026,0 hPa 0,0 l/m 21,3 km/h (4 Bft) S-SO45 160 5 min 29,3 klux 200 W/m
08.12.2015 14:20 14,2 C 19,8 C 65 % 1026,0 hPa 0,0 l/m 21,3 km/h (4 Bft) S-SO45 160 5 min 26,8 klux 183 W/m
08.12.2015 14:25 14,2 C 18,7 C 65 % 1026,0 hPa 0,0 l/m 21,1 km/h (4 Bft) S-SO22.5 165 5 min 24,2 klux 166 W/m
08.12.2015 14:30 14,2 C 18,4 C 65 % 1026,0 hPa 0,0 l/m 19,5 km/h (3 Bft) S-SO45 165 5 min 20,5 klux 140 W/m
08.12.2015 14:35 14,2 C 17,5 C 65 % 1026,0 hPa 0,0 l/m 17,6 km/h (3 Bft) S-SO22.5 165 5 min 17,6 klux 120 W/m
08.12.2015 14:40 13,7 C 17,3 C 66 % 1026,0 hPa 0,0 l/m 19,9 km/h (4 Bft) S-SO22.5 165 5 min 21,9 klux 150 W/m
08.12.2015 14:45 13,7 C 17,1 C 66 % 1026,0 hPa 0,0 l/m 19,9 km/h (4 Bft) S-SO22.5 165 5 min 14,1 klux 96 W/m
08.12.2015 14:50 13,7 C 16,1 C 66 % 1025,0 hPa 0,0 l/m 19,9 km/h (4 Bft) S-SO22.5 165 5 min 14,0 klux 96 W/m
08.12.2015 14:55 13,7 C 15,5 C 66 % 1025,0 hPa 0,0 l/m 20,0 km/h (4 Bft) S-SO22.5 165 0 min 12,0 klux 82 W/m
08.12.2015 15:00 13,7 C 14,9 C 66 % 1025,0 hPa 0,0 l/m 20,8 km/h (4 Bft) S-SO22.5 165 5 min 13,6 klux 93 W/m
08.12.2015 15:05 13,7 C 14,7 C 66 % 1025,0 hPa 0,0 l/m 22,3 km/h (4 Bft) S-SO22.5 165 5 min 13,6 klux 93 W/m
08.12.2015 15:10 13,7 C 14,2 C 66 % 1025,0 hPa 0,0 l/m 16,2 km/h (3 Bft) S-SO22.5 165 5 min 10,5 klux 72 W/m
08.12.2015 15:15 13,2 C 13,6 C 68 % 1025,0 hPa 0,0 l/m 16,2 km/h (3 Bft) S-SO22.5 165 0 min 9,1 klux 62 W/m
08.12.2015 15:20 13,2 C 13,1 C 68 % 1025,0 hPa 0,0 l/m 18,3 km/h (3 Bft) S-SO22.5 165 0 min 5,92 klux 40 W/m
08.12.2015 15:25 13,2 C 12,4 C 68 % 1025,0 hPa 0,0 l/m 19,4 km/h (3 Bft) S22.5 170 0 min 5,41 klux 37 W/m
08.12.2015 15:30 13,2 C 12,0 C 68 % 1025,0 hPa 0,0 l/m 19,4 km/h (3 Bft) S22.5 170 0 min 4,66 klux 32 W/m
08.12.2015 15:35 13,2 C 11,8 C 68 % 1025,0 hPa 0,0 l/m 15,2 km/h (3 Bft) S22.5 170 0 min 4,25 klux 29 W/m
08.12.2015 15:40 13,2 C 11,4 C 68 % 1025,0 hPa 0,0 l/m 15,2 km/h (3 Bft) S22.5 170 0 min 3,54 klux 24 W/m
08.12.2015 15:45 13,2 C 11,0 C 68 % 1025,0 hPa 0,0 l/m 15,2 km/h (3 Bft) S22.5 170 0 min 3,33 klux 23 W/m
08.12.2015 15:50 13,2 C 10,8 C 68 % 1025,0 hPa 0,0 l/m 16,6 km/h (3 Bft) S45 170 0 min 2,91 klux 20 W/m
08.12.2015 15:55 12,7 C 10,7 C 68 % 1025,0 hPa 0,0 l/m 16,6 km/h (3 Bft) S45 170 0 min 2,44 klux 17 W/m
08.12.2015 16:00 12,7 C 10,5 C 68 % 1025,0 hPa 0,0 l/m 16,6 km/h (3 Bft) S45 170 0 min 2,44 klux 17 W/m
08.12.2015 16:05 12,7 C 10,3 C 68 % 1025,0 hPa 0,0 l/m 16,6 km/h (3 Bft) S45 170 0 min 1,83 klux 13 W/m
08.12.2015 16:10 12,5 C 10,2 C 69 % 1025,0 hPa 0,0 l/m 16,8 km/h (3 Bft) S-SO22.5 160 5 min 1,44 klux 10 W/m
08.12.2015 16:15 12,4 C 10,0 C 69 % 1025,0 hPa 0,0 l/m 16,8 km/h (3 Bft) S-SO22.5 160 0 min 877 lux 6 W/m
08.12.2015 16:20 12,4 C 9,7 C 70 % 1025,0 hPa 0,0 l/m 16,8 km/h (3 Bft) S-SO22.5 160 0 min 607 lux 0 W/m
08.12.2015 16:25 12,4 C 9,7 C 70 % 1025,0 hPa 0,0 l/m 16,8 km/h (3 Bft) S-SO22.5 160 0 min 492 lux 0 W/m
08.12.2015 16:30 12,2 C 9,3 C 70 % 1025,0 hPa 0,0 l/m 16,8 km/h (3 Bft) S-SO22.5 160 0 min 268 lux 0 W/m
08.12.2015 16:35 12,0 C 9,3 C 70 % 1025,0 hPa 0,0 l/m 16,8 km/h (3 Bft) S-SO22.5 160 0 min 206 lux 0 W/m
08.12.2015 16:40 12,1 C 9,7 C 70 % 1025,0 hPa 0,0 l/m 16,8 km/h (3 Bft) S-SO22.5 160 0 min 116 lux 0 W/m
08.12.2015 16:45 12,1 C 9,8 C 70 % 1025,0 hPa 0,0 l/m 16,8 km/h (3 Bft) S-SO22.5 160 0 min 35 lux 0 W/m
08.12.2015 16:50 12,1 C 10,3 C 70 % 1025,0 hPa 0,0 l/m 16,8 km/h (3 Bft) S-SO22.5 160 0 min 24 lux 0 W/m
08.12.2015 16:55 12,1 C 10,6 C 70 % 1025,0 hPa 0,0 l/m 16,8 km/h (3 Bft) S-SO22.5 160 0 min 20 lux 0 W/m
08.12.2015 17:00 12,2 C 10,6 C 70 % 1025,0 hPa 0,0 l/m 16,8 km/h (3 Bft) S-SO22.5 160 0 min 8 lux 0 W/m
08.12.2015 17:05 12,2 C 10,7 C 70 % 1025,0 hPa 0,0 l/m 16,8 km/h (3 Bft) S-SO22.5 160 0 min 5 lux 0 W/m
08.12.2015 17:10 12,2 C 11,1 C 70 % 1025,0 hPa 0,0 l/m 16,8 km/h (3 Bft) S-SO22.5 160 0 min 0 lux 0 W/m
08.12.2015 17:15 12,2 C 11,2 C 70 % 1025,0 hPa 0,0 l/m 16,8 km/h (3 Bft) S-SO22.5 160 0 min 0 lux 0 W/m
08.12.2015 17:19 12,3 C 11,4 C 70 % 1025,0 hPa 0,0 l/m 16,8 km/h (3 Bft) S-SO22.5 160 0 min 0 lux 0 W/m
08.12.2015 17:25 12,3 C 11,5 C 70 % 1025,0 hPa 0,0 l/m 19,8 km/h (3 Bft) S-SO22.5 160 0 min 0 lux 0 W/m
08.12.2015 17:30 12,3 C 11,6 C 70 % 1025,0 hPa 0,0 l/m 19,8 km/h (3 Bft) S-SO22.5 160 0 min 0 lux 0 W/m
08.12.2015 17:35 12,3 C 11,6 C 70 % 1025,0 hPa 0,0 l/m 19,8 km/h (3 Bft) S-SO22.5 160 0 min 0 lux 0 W/m
08.12.2015 17:40 12,3 C 11,7 C 70 % 1025,0 hPa 0,0 l/m 19,8 km/h (3 Bft) S-SO22.5 160 0 min 0 lux 0 W/m
08.12.2015 17:45 12,4 C 11,8 C 70 % 1025,0 hPa 0,0 l/m 20,1 km/h (4 Bft) S-SO22.5 165 0 min 0 lux 0 W/m
08.12.2015 17:49 12,4 C 11,7 C 70 % 1025,0 hPa 0,0 l/m 20,1 km/h (4 Bft) S-SO22.5 165 0 min 0 lux 0 W/m
08.12.2015 17:55 12,3 C 11,5 C 70 % 1025,0 hPa 0,0 l/m 20,1 km/h (4 Bft) S-SO22.5 165 0 min 0 lux 0 W/m
08.12.2015 18:00 12,2 C 11,3 C 70 % 1025,0 hPa 0,0 l/m 20,1 km/h (4 Bft) S-SO22.5 165 0 min 0 lux 0 W/m
08.12.2015 18:05 12,1 C 11,1 C 71 % 1025,0 hPa 0,0 l/m 20,1 km/h (4 Bft) S-SO22.5 165 0 min 0 lux 0 W/m
08.12.2015 18:10 12,0 C 10,7 C 71 % 1025,0 hPa 0,0 l/m 20,1 km/h (4 Bft) S-SO22.5 165 0 min 0 lux 0 W/m
08.12.2015 18:15 12,0 C 10,2 C 71 % 1025,0 hPa 0,0 l/m 20,1 km/h (4 Bft) S-SO22.5 165 0 min 0 lux 0 W/m
08.12.2015 18:20 11,8 C 10,0 C 71 % 1026,0 hPa 0,0 l/m 20,1 km/h (4 Bft) S-SO22.5 165 0 min 0 lux 0 W/m
08.12.2015 18:25 11,8 C 9,9 C 72 % 1026,0 hPa 0,0 l/m 20,1 km/h (4 Bft) S-SO22.5 165 0 min 0 lux 0 W/m
08.12.2015 18:30 11,7 C 10,2 C 72 % 1026,0 hPa 0,0 l/m 20,1 km/h (4 Bft) S-SO22.5 165 0 min 0 lux 0 W/m
08.12.2015 18:35 11,6 C 10,4 C 72 % 1026,0 hPa 0,0 l/m 20,1 km/h (4 Bft) S-SO22.5 165 0 min 0 lux 0 W/m
08.12.2015 18:40 11,6 C 10,5 C 72 % 1026,0 hPa 0,0 l/m 20,1 km/h (4 Bft) S-SO22.5 165 0 min 0 lux 0 W/m
08.12.2015 18:45 11,6 C 10,7 C 72 % 1026,0 hPa 0,0 l/m 19,2 km/h (3 Bft) S22.5 170 0 min 0 lux 0 W/m
08.12.2015 18:50 11,6 C 10,9 C 72 % 1026,0 hPa 0,0 l/m 19,2 km/h (3 Bft) S22.5 170 0 min 0 lux 0 W/m
08.12.2015 18:55 11,6 C 10,9 C 73 % 1026,0 hPa 0,0 l/m 19,2 km/h (3 Bft) S22.5 170 0 min 0 lux 0 W/m
08.12.2015 19:00 11,6 C 11,0 C 73 % 1026,0 hPa 0,0 l/m 19,2 km/h (3 Bft) S22.5 170 0 min 0 lux 0 W/m
08.12.2015 19:05 11,6 C 11,0 C 73 % 1026,0 hPa 0,0 l/m 19,2 km/h (3 Bft) S22.5 170 0 min 0 lux 0 W/m
08.12.2015 19:10 11,5 C 11,0 C 73 % 1026,0 hPa 0,0 l/m 19,2 km/h (3 Bft) S22.5 170 0 min 0 lux 0 W/m
08.12.2015 19:15 11,5 C 11,0 C 73 % 1026,0 hPa 0,0 l/m 19,2 km/h (3 Bft) S22.5 170 0 min 0 lux 0 W/m
08.12.2015 19:20 11,5 C 11,0 C 73 % 1026,0 hPa 0,0 l/m 19,2 km/h (3 Bft) S22.5 170 0 min 0 lux 0 W/m
08.12.2015 19:25 11,5 C 10,8 C 74 % 1026,0 hPa 0,0 l/m 19,2 km/h (3 Bft) S22.5 170 0 min 0 lux 0 W/m
08.12.2015 19:30 11,4 C 10,4 C 74 % 1026,0 hPa 0,0 l/m 19,2 km/h (3 Bft) S22.5 170 0 min 0 lux 0 W/m
08.12.2015 19:35 11,3 C 10,1 C 75 % 1026,0 hPa 0,0 l/m 14,2 km/h (3 Bft) S-SO22.5 155 0 min 0 lux 0 W/m
08.12.2015 19:40 11,2 C 9,9 C 75 % 1026,0 hPa 0,0 l/m 14,2 km/h (3 Bft) S-SO22.5 155 0 min 0 lux 0 W/m
08.12.2015 19:45 11,2 C 9,8 C 76 % 1026,0 hPa 0,0 l/m 14,2 km/h (3 Bft) S-SO22.5 155 0 min 0 lux 0 W/m
08.12.2015 19:50 11,2 C 9,7 C 76 % 1026,0 hPa 0,0 l/m 14,2 km/h (3 Bft) S-SO22.5 155 0 min 0 lux 0 W/m
08.12.2015 19:55 11,0 C 9,7 C 76 % 1026,0 hPa 0,0 l/m 14,2 km/h (3 Bft) S-SO22.5 155 0 min 0 lux 0 W/m
08.12.2015 20:00 10,9 C 9,6 C 77 % 1026,0 hPa 0,4 l/m 14,2 km/h (3 Bft) S-SO22.5 155 0 min 0 lux 0 W/m
08.12.2015 20:05 10,8 C 9,5 C 78 % 1026,0 hPa 0,4 l/m 14,2 km/h (3 Bft) S22.5 180 0 min 0 lux 0 W/m
08.12.2015 20:10 10,7 C 9,5 C 78 % 1026,1 hPa 0,4 l/m 14,2 km/h (3 Bft) S22.5 180 0 min 0 lux 0 W/m
08.12.2015 20:15 10,5 C 9,5 C 80 % 1026,1 hPa 0,0 l/m 14,2 km/h (3 Bft) S22.5 180 0 min 0 lux 0 W/m
08.12.2015 20:20 10,4 C 9,5 C 80 % 1026,1 hPa 0,0 l/m 14,2 km/h (3 Bft) S22.5 180 0 min 0 lux 0 W/m
08.12.2015 20:25 10,4 C 9,4 C 80 % 1026,1 hPa 0,0 l/m 14,2 km/h (3 Bft) S22.5 180 0 min 0 lux 0 W/m
08.12.2015 20:29 10,4 C 9,4 C 81 % 1026,1 hPa 0,0 l/m 14,2 km/h (3 Bft) S22.5 180 0 min 0 lux 0 W/m
08.12.2015 20:35 10,2 C 9,4 C 82 % 1026,1 hPa 0,0 l/m 14,2 km/h (3 Bft) S22.5 180 0 min 0 lux 0 W/m
08.12.2015 20:40 10,2 C 9,4 C 82 % 1026,1 hPa 0,4 l/m 14,2 km/h (3 Bft) S22.5 180 0 min 0 lux 0 W/m
08.12.2015 20:45 10,2 C 9,3 C 82 % 1026,1 hPa 0,4 l/m 14,2 km/h (3 Bft) S22.5 180 0 min 0 lux 0 W/m
08.12.2015 20:50 10,1 C 9,3 C 82 % 1026,1 hPa 0,0 l/m 14,2 km/h (3 Bft) S22.5 180 0 min 0 lux 0 W/m
08.12.2015 20:55 10,1 C 9,3 C 83 % 1026,1 hPa 0,0 l/m 14,2 km/h (3 Bft) S22.5 180 0 min 0 lux 0 W/m
08.12.2015 20:59 10,0 C 9,3 C 83 % 1026,1 hPa 0,0 l/m 14,2 km/h (3 Bft) S22.5 180 0 min 0 lux 0 W/m
08.12.2015 21:05 10,0 C 9,3 C 84 % 1026,1 hPa 0,0 l/m 14,2 km/h (3 Bft) S22.5 180 0 min 0 lux 0 W/m
08.12.2015 21:10 10,0 C 9,4 C 84 % 1026,1 hPa 0,0 l/m 14,2 km/h (3 Bft) S22.5 180 0 min 0 lux 0 W/m
08.12.2015 21:15 10,0 C 9,4 C 84 % 1026,1 hPa 0,7 l/m 14,2 km/h (3 Bft) S22.5 180 0 min 0 lux 0 W/m
08.12.2015 21:20 10,1 C 9,5 C 84 % 1026,1 hPa 0,0 l/m 14,2 km/h (3 Bft) S22.5 180 0 min 0 lux 0 W/m
08.12.2015 21:25 10,2 C 9,5 C 85 % 1026,1 hPa 0,0 l/m 14,2 km/h (3 Bft) S22.5 180 0 min 0 lux 0 W/m
08.12.2015 21:30 10,2 C 9,6 C 85 % 1026,1 hPa 0,0 l/m 14,2 km/h (3 Bft) S22.5 180 0 min 0 lux 0 W/m
08.12.2015 21:35 10,3 C 9,7 C 85 % 1026,1 hPa 0,0 l/m 14,2 km/h (3 Bft) S22.5 180 0 min 0 lux 0 W/m
08.12.2015 21:40 10,4 C 9,7 C 85 % 1026,1 hPa 0,0 l/m 14,2 km/h (3 Bft) S22.5 180 0 min 0 lux 0 W/m
08.12.2015 21:45 10,4 C 9,8 C 85 % 1027,1 hPa 0,0 l/m 14,2 km/h (3 Bft) S22.5 180 0 min 0 lux 0 W/m
08.12.2015 21:50 10,4 C 9,9 C 85 % 1027,1 hPa 0,0 l/m 14,2 km/h (3 Bft) S22.5 180 0 min 0 lux 0 W/m
08.12.2015 21:55 10,4 C 10,0 C 86 % 1027,1 hPa 0,4 l/m 14,2 km/h (3 Bft) S22.5 180 0 min 0 lux 0 W/m
08.12.2015 22:00 10,4 C 10,0 C 86 % 1027,1 hPa 0,0 l/m 14,2 km/h (3 Bft) S22.5 180 0 min 0 lux 0 W/m
08.12.2015 22:05 10,5 C 10,1 C 86 % 1027,1 hPa 0,0 l/m 14,2 km/h (3 Bft) S22.5 180 0 min 0 lux 0 W/m
08.12.2015 22:10 10,6 C 10,2 C 87 % 1027,1 hPa 0,0 l/m 14,2 km/h (3 Bft) S22.5 180 0 min 0 lux 0 W/m
08.12.2015 22:14 10,7 C 10,2 C 87 % 1027,1 hPa 0,0 l/m 14,2 km/h (3 Bft) S22.5 180 0 min 0 lux 0 W/m
08.12.2015 22:20 10,6 C 10,3 C 87 % 1027,1 hPa 0,0 l/m 14,2 km/h (3 Bft) S22.5 180 0 min 0 lux 0 W/m
08.12.2015 22:25 10,6 C 10,3 C 87 % 1027,1 hPa 0,0 l/m 14,2 km/h (3 Bft) S22.5 180 0 min 0 lux 0 W/m
08.12.2015 22:30 10,6 C 10,3 C 87 % 1027,1 hPa 0,0 l/m 14,2 km/h (3 Bft) S22.5 180 0 min 0 lux 0 W/m
08.12.2015 22:35 10,6 C 10,3 C 88 % 1027,1 hPa 0,4 l/m 14,2 km/h (3 Bft) S22.5 180 0 min 0 lux 0 W/m
08.12.2015 22:40 10,6 C 10,3 C 88 % 1027,1 hPa 0,0 l/m 14,2 km/h (3 Bft) S22.5 180 0 min 0 lux 0 W/m
08.12.2015 22:44 10,6 C 10,3 C 88 % 1027,1 hPa 0,4 l/m 14,2 km/h (3 Bft) S22.5 180 0 min 0 lux 0 W/m
08.12.2015 22:50 10,6 C 10,3 C 88 % 1027,1 hPa 0,0 l/m 14,2 km/h (3 Bft) S22.5 180 0 min 0 lux 0 W/m
08.12.2015 22:55 10,6 C 10,3 C 88 % 1027,1 hPa 0,0 l/m 14,2 km/h (3 Bft) S22.5 180 0 min 0 lux 0 W/m
08.12.2015 23:00 10,6 C 10,3 C 88 % 1027,1 hPa 0,0 l/m 14,2 km/h (3 Bft) S22.5 180 0 min 0 lux 0 W/m
08.12.2015 23:05 10,6 C 10,2 C 88 % 1027,1 hPa 0,0 l/m 14,2 km/h (3 Bft) S22.5 180 0 min 0 lux 0 W/m
08.12.2015 23:10 10,5 C 10,2 C 88 % 1027,1 hPa 0,4 l/m 14,2 km/h (3 Bft) S22.5 180 0 min 0 lux 0 W/m
08.12.2015 23:15 10,5 C 10,2 C 88 % 1027,1 hPa 0,0 l/m 14,2 km/h (3 Bft) S22.5 180 0 min 0 lux 0 W/m
08.12.2015 23:20 10,4 C 10,2 C 88 % 1027,1 hPa 0,0 l/m 14,2 km/h (3 Bft) S22.5 180 0 min 0 lux 0 W/m
08.12.2015 23:25 10,5 C 10,2 C 88 % 1027,1 hPa 0,0 l/m 14,2 km/h (3 Bft) S22.5 180 0 min 0 lux 0 W/m
08.12.2015 23:30 10,4 C 10,2 C 88 % 1027,1 hPa 0,0 l/m 14,2 km/h (3 Bft) S22.5 180 0 min 0 lux 0 W/m
08.12.2015 23:35 10,4 C 10,1 C 88 % 1027,1 hPa 0,0 l/m 14,2 km/h (3 Bft) S22.5 180 0 min 0 lux 0 W/m
08.12.2015 23:40 10,3 C 10,1 C 87 % 1027,1 hPa 0,4 l/m 14,2 km/h (3 Bft) S22.5 180 0 min 0 lux 0 W/m
08.12.2015 23:45 10,2 C 9,9 C 87 % 1027,1 hPa 0,0 l/m 14,2 km/h (3 Bft) S22.5 180 0 min 0 lux 0 W/m
08.12.2015 23:50 10,1 C 9,8 C 87 % 1027,1 hPa 0,0 l/m 14,2 km/h (3 Bft) S22.5 180 0 min 0 lux 0 W/m
08.12.2015 23:55 10,1 C 9,7 C 87 % 1027,1 hPa 0,4 l/m 14,2 km/h (3 Bft) S22.5 180 0 min 0 lux 0 W/m
_ Min-Zeit 07:35 07:35 14:20 14:50 - 01:20 - - - - -
Minimum _ 8,8 C 5,7 C 65 % 1025,0 hPa - 11,6 km/h (2 Bft) - - - - -
_ Max-Zeit 14:20 13:25 22:35 04:20 21:15 11:00 - - 11:00 12:30 12:30
Maximum _ 14,2 C 23,4 C 88 % 1029,1 hPa 0,7 l/m 26,8 km/h
S-SO (4 Bft)
- - 6 min 37,7 klux 258 W/m
Durchschnitt _ 11,1 C 11,2 C 76 % 1027,2 hPa #4,7 l/m 15,8 km/h (3 Bft) S-SO - #6:30 h 7,51 klux 159 W/m